Tracking 32963 objects as of 22-Jan-2026
HD Live streaming from Space Station
objects crossing your sky now

STARLINK-30872

Track STARLINK-30872 now!
10-day predictions
STARLINK-30872 is classified as:


NORAD ID: 58225
Int'l Code: 2023-170V
Perigee: 489.1 km
Apogee: 491.3 km
Inclination: 43.0 °
Period: 94.3 minutes
Semi major axis: 6861 km
RCS: Unknown
Launch date: November 3, 2023
Source: United States (US)
Launch site: AIR FORCE EASTERN TEST RANGE (AFETR)
Your satellite tracking list
Your tracking list is empty




NASA's NSSDC Master Catalog

Two Line Element Set (TLE):
1 58225U 23170V   26021.51579237 -.00001944  00000-0 -61119-4 0  9997
2 58225  43.0021 318.7216 0001646 264.7671  95.2993 15.27580358124752
Source of the keplerian elements: AFSPC